Flight Track Log - Related Links

Times and Time Zones

All times are in EDT time to prevent confusion due to time zone crossing. See the DAL1937 flight status page for this flight to view local times or setup timezone preferences in your user account.

Time Position Orientation Groundspeed Altitude Reporting Facility
EDT Latitude Longitude Course Direction KTS MPH feet Rate Location/Type
Fri 06:14:01 AM 39.1667 -76.7333 293° West 178 205 2,200  Level Potomac TRACON
Fri 06:15:00 AM 39.2000 -77.0683 270° West  Level FlightAware Approximate
Fri 06:15:19 AM 39.2000 -76.8333 293° West 263 303 5,000  Level Potomac TRACON
Fri 06:16:00 AM 39.2391 -77.1724 322° Northwest  Level FlightAware Approximate
Fri 06:16:07 AM 39.2333 -76.9167 297° West 272 313 7,800  Level Potomac TRACON
Fri 06:17:00 AM 39.3231 -77.2564 322° Northwest  Level FlightAware Approximate
Fri 06:18:00 AM 39.3824 -77.3630 288° West  Level FlightAware Approximate
Fri 06:18:04 AM 39.2856 -77.0878 292° West 279 321 13,400  Level Washington Center
Fri 06:19:00 AM 39.4195 -77.4919 293° West  Level FlightAware Approximate
Fri 06:19:03 AM 39.3175 -77.1850 293° West 284 327 15,900  Level Washington Center
Fri 06:20:03 AM 39.3536 -77.2933 293° West 306 352 17,100 1,311 Climbing Washington Center
Fri 06:21:02 AM 39.3978 -77.4178 295° West 344 396 18,500 1,613 Climbing Washington Center
Fri 06:22:02 AM 39.4375 -77.5369 293° West 391 450 20,300 1,884 Climbing Washington Center
Fri 06:23:03 AM 39.4789 -77.6725 292° West 408 470 22,300 1,636 Climbing Washington Center
Fri 06:24:03 AM 39.5225 -77.8111 292° West 413 475 23,600 1,450 Climbing Washington Center
Fri 06:25:03 AM 39.5656 -77.9550 291° West 418 481 25,200 1,500 Climbing Washington Center
Fri 06:26:59 AM 39.6597 -78.2586 292° West 453 521 28,000 1,636 Climbing Cleveland Center
Fri 06:27:59 AM 39.7022 -78.4031 291° West 448 516 30,000 1,950 Climbing Cleveland Center
Fri 06:28:59 AM 39.7425 -78.5419 291° West 434 499 31,900 1,550 Climbing Cleveland Center
Fri 06:29:59 AM 39.7822 -78.6758 291° West 417 480 33,100 1,000 Climbing Cleveland Center
Fri 06:30:59 AM 39.8136 -78.8019 288° West 406 467 33,900 450 Climbing Cleveland Center
Fri 06:31:59 AM 39.8531 -78.9444 290° West 406 467 34,000 50 Climbing Cleveland Center
Fri 06:32:59 AM 39.9056 -79.1081 293° West 422 486 34,000  Level Cleveland Center
Fri 06:33:59 AM 39.9469 -79.2561 290° West 431 496 34,000  Level Cleveland Center
Fri 06:35:00 AM 39.9986 -79.3989 295° West 436 502 34,000 -100 Level Cleveland Center
Fri 06:35:59 AM 40.0664 -79.5333 303° West 436 502 33,800 -500 Descending Cleveland Center
Fri 06:37:00 AM 40.1322 -79.6625 304° West 436 502 33,000 -400 Descending Cleveland Center
Fri 06:37:59 AM 40.2000 -79.7947 304° West 436 502 33,000  Level Cleveland Center
Fri 06:38:59 AM 40.2675 -79.9275 304° West 436 502 33,000  Level Cleveland Center
Fri 06:39:59 AM 40.3264 -80.0494 302° West 430 495 33,000 -300 Level Cleveland Center
Fri 06:40:59 AM 40.3939 -80.1850 303° West 435 501 32,400 -750 Descending Cleveland Center
Fri 06:41:59 AM 40.4631 -80.3211 304° West 441 507 31,500 -950 Descending Cleveland Center
Fri 06:42:59 AM 40.5319 -80.4547 304° West 441 507 30,500 -750 Descending Cleveland Center
Fri 06:43:59 AM 40.6092 -80.6050 304° West 441 507 30,000 -248 Descending Cleveland Center
Fri 06:45:00 AM 40.6758 -80.7281 306° West 452 520 30,000  Level Cleveland Center
Fri 06:45:59 AM 40.7486 -80.8628 306° West 452 520 30,000  Level Cleveland Center
Fri 06:46:59 AM 40.8189 -80.9975 305° West 452 520 30,000 -150 Level Cleveland Center
Fri 06:47:59 AM 40.8872 -81.1378 303° West 452 520 29,700 -645 Descending Cleveland Center
Fri 06:49:00 AM 40.9572 -81.2706 305° West 452 520 28,700 -942 Descending Cleveland Center
Fri 06:50:00 AM 41.0231 -81.3978 304° West 440 506 27,800 -958 Descending Cleveland Center
Fri 06:50:59 AM 41.0889 -81.5253 304° West 432 497 26,800 -1,000 Descending Cleveland Center
Fri 06:52:00 AM 41.1567 -81.6478 306° West 422 486 25,800 -950 Descending Cleveland Center
Fri 06:52:59 AM 41.2181 -81.7700 304° West 411 473 24,900 -1,008 Descending Cleveland Center
Fri 06:53:59 AM 41.2792 -81.8844 305° West 400 460 23,800 -1,000 Descending Cleveland Center
Fri 06:54:59 AM 41.3322 -81.9906 304° West 376 433 22,900 -942 Descending Cleveland Center
Fri 06:56:00 AM 41.3831 -82.0942 303° West 347 399 21,900 -950 Descending Cleveland Center
Fri 06:56:59 AM 41.4317 -82.1950 303° West 334 384 21,000 -1,100 Descending Cleveland Center
Fri 06:58:00 AM 41.4864 -82.3017 304° West 335 386 19,700 -1,587 Descending Cleveland Center
Fri 06:59:00 AM 41.5408 -82.4142 303° West 355 409 17,800 -1,858 Descending Cleveland Center
Fri 06:59:53 AM 41.5914 -82.5156 304° West 350 403 16,200 -2,050 Descending Cleveland Center
Fri 07:01:00 AM 41.6519 -82.6311 305° West 328 377 13,700 -2,000 Descending Cleveland Center
Fri 07:01:59 AM 41.6981 -82.7272 303° West 333 383 12,000 -1,008 Descending Cleveland Center
Fri 07:02:59 AM 41.7442 -82.8264 302° West 322 371 11,700 -744 Descending Cleveland Center
Fri 07:04:00 AM 41.7819 -82.9167 299° West 304 350 10,500 -1,240 Descending Cleveland Center
Fri 07:05:00 AM 41.8117 -82.9958 297° West 284 327 9,200 -1,760 Descending Cleveland Center
Fri 07:05:15 AM 41.8256 -83.0297 299° West 264 304 8,300 -1,831 Descending Cleveland Center
Fri 07:05:59 AM 41.8453 -83.0806 298° West 272 313 7,400 -1,672 Descending Cleveland Center
Fri 07:06:16 AM 41.8592 -83.1119 301° West 256 295 6,600 -1,377 Descending Cleveland Center
Fri 07:07:00 AM 41.8786 -83.1656 296° West 261 300 6,000 -590 Descending Cleveland Center
Fri 07:07:17 AM 41.8925 -83.1969 301° West 225 259 6,000  Level Cleveland Center
Fri 07:08:00 AM 41.9083 -83.2422 295° West 234 269 6,000  Level Cleveland Center
Fri 07:08:18 AM 41.9181 -83.2650 300° West 209 241 6,000  Level Cleveland Center
Fri 07:08:59 AM 41.9275 -83.3156 284° West 210 242 6,000 -744 Level Cleveland Center
Fri 07:10:19 AM 41.9564 -83.4089 293° West 196 226 4,500 -1,277 Descending Cleveland Center
Fri 07:11:20 AM 42.0125 -83.4169 354° North 192 221 3,000 -818 Descending Cleveland Center
Fri 07:12:09 AM 42.0481 -83.4158 North 156 180 3,000 -103 Level Cleveland Center
Fri 07:13:16 AM 42.0961 -83.4122 North 156 180 2,800 -179 Descending Cleveland Center

Login

Don't have an account? Register now (free) for customized features, flight alerts, and more!